Flag for France Weather past 2 weeks in Paris, France

Now
90 °F

Passing clouds.


Feels Like: 86 °F
Forecast: 63 / 77 °F
Wind: 12 mph from Southwest

Location: Villacoublay

Current Time: Aug 3, 2015 at 5:45:13 PM

Latest Report: Aug 3, 2015 at 5:00 PM


Visibility: N/A

Pressure: 29.92 "Hg

Humidity: 22%

Dew point: 46 °F

Location of ParisLocation

Historic Weather in Paris — Graph

°F

Paris temperature yesterday

Maximum temperature yesterday: 84 °F (at 6:00 PM)
Minimum temperature yesterday: 57 °F (at 5:30 AM)
Average temperature yesterday: 72 °F

Past Weeks' High & Low Weather Summary

 TemperatureHumidityPressure
High90 °F (Aug 3, 2:30 PM)100% (Jul 27, 5:00 AM)30.12 "Hg (Jul 27, 5:00 AM)
Low50 °F (Jul 30, 4:00 AM)21% (Aug 3, 3:30 PM)29.62 "Hg (Jul 25, 12:00 AM)
Average66 °F61%29.95 "Hg
* Reported Jul 19 4:00 PM — Aug 3 4:30 PM, Paris, Weather by CustomWeather, © 2015

Note: Actual official high and low records may vary slightly from our data, if they occured in-between our weather recording intervals... More about our weather records

Advertising

Paris weather history for previous 24 hours

 ConditionsComfort  
Time TempWeatherWind HumidityBarometerVisibility
4:30 PM
Mon, Aug 3
90 °FPassing clouds.12 mph22%29.92 "HgN/A
4:00 PM90 °FPassing clouds.12 mph21%29.92 "HgN/A
3:30 PM90 °FSunny.N/A21%29.95 "HgN/A
3:00 PM88 °FPassing clouds.10 mph22%29.95 "HgN/A
2:30 PM90 °FSunny.N/A22%29.95 "Hg10 mi
2:00 PM88 °FSunny.N/A22%29.98 "Hg10 mi
1:30 PM86 °FPassing clouds.7 mph25%29.98 "HgN/A
1:00 PM84 °FPassing clouds.8 mph25%29.98 "HgN/A
12:30 PM82 °FPassing clouds.6 mph26%29.98 "HgN/A
11:30 AM81 °FPassing clouds.6 mph28%30.01 "HgN/A
11:00 AM79 °FPassing clouds.7 mph32%29.98 "HgN/A
10:30 AM77 °FPassing clouds.6 mph44%29.98 "HgN/A
10:00 AM75 °FSunny.8 mph50%29.98 "Hg10 mi
9:30 AM73 °FPassing clouds.6 mph50%29.98 "HgN/A
9:00 AM72 °FSunny.7 mph50%29.98 "Hg10 mi
8:30 AM68 °FSunny.N/A56%29.95 "Hg10 mi
8:00 AM68 °FSunny.5 mph56%29.95 "Hg10 mi
7:30 AM66 °FSunny.6 mph56%29.95 "Hg10 mi
7:00 AM64 °FClear.6 mph60%29.95 "Hg10 mi
6:00 AM64 °FClear.5 mph60%29.92 "Hg10 mi
5:30 AM66 °FClear.3 mph56%29.92 "Hg10 mi
5:00 AM68 °FClear.5 mph53%29.92 "Hg10 mi
4:30 AM68 °FClear.3 mph53%29.92 "Hg10 mi
4:00 AM70 °FClear.5 mph50%29.92 "Hg10 mi
3:30 AM70 °FClear.6 mph50%29.92 "Hg10 mi
3:00 AM72 °FClear.7 mph47%29.92 "Hg10 mi
2:30 AM73 °FClear.N/A44%29.95 "Hg10 mi
2:00 AM73 °FClear.6 mph44%29.95 "Hg10 mi
1:30 AM73 °FClear.6 mph41%29.95 "Hg10 mi
1:00 AM73 °FPassing clouds.6 mph41%29.95 "HgN/A
12:30 AM75 °FClear.6 mph39%29.95 "Hg10 mi
12:00 AM75 °FPassing clouds.6 mph39%29.95 "HgN/A
11:30 PM
Sun, Aug 2
75 °FClear.N/A39%29.95 "Hg10 mi
11:00 PM77 °FClear.6 mph36%29.95 "Hg10 mi
10:30 PM77 °FClear.N/A39%29.95 "Hg10 mi
10:00 PM77 °FSunny.N/A36%29.95 "Hg10 mi
9:30 PM79 °FSunny.6 mph34%29.95 "Hg10 mi
9:00 PM81 °FSunny.N/A32%29.95 "Hg10 mi
8:30 PM82 °FPassing clouds.5 mph30%29.95 "HgN/A
8:00 PM82 °FPassing clouds.6 mph30%29.95 "HgN/A
7:30 PM82 °FPassing clouds.6 mph32%29.95 "HgN/A
7:00 PM84 °FSunny.N/A29%29.95 "Hg10 mi
6:30 PM84 °FPassing clouds.8 mph29%29.98 "HgN/A
6:00 PM84 °FPassing clouds.8 mph29%29.98 "HgN/A
5:30 PM82 °FPassing clouds.10 mph28%29.98 "HgN/A
5:00 PM82 °FSunny.N/A28%30.01 "Hg10 mi
Weather by CustomWeather, © 2015

See weather overviewHow to use our weather pages